Zurück zum Katalog

ARIANE 44L DEB

AktivHEO
NORAD 24741·DEBRIS·🇫🇷 France

Gestartet Jan 15, 1991 von Guiana Space Centre

Loading…

Nächste Überflüge (nächste 24 Stunden)

TLE

AktuellSource: Space-Track

Epoche: Sep 14, 2026, 14:14 UTC

1 24741U 91003H   26257.59347442 -.00000269  00000-0 -38939-2 0  9994
2 24741   6.4082 136.6978 6804826 296.9693 297.4991  2.65549829202115

Verfolge ARIANE 44L DEB in Echtzeit mit AllMySat

Download on the App Store